Regional Weather Roundup
Issued by NWS Little Rock, AR

Home | Current Version | Previous Version | Text Only | Print | Product List | Glossary On
Versions: 1 2 3 4 5 6 7 8 9 10 11 12 13 14 15 16 17 18 19 20 21 22 23 24 25 26 27 28 29 30 31 32 33 34 35 36 37 38 39 40 41 42 43 44 45 46 47 48 49 50
000
ASUS44 KLZK 232005
RWRLZK

WEATHER ROUNDUP FOR ARKANSAS
NATIONAL WEATHER SERVICE LITTLE ROCK AR
300 PM CDT TUE MAY 23 2017

NOTE: "FAIR" INDICATES FEW OR NO CLOUDS BELOW 12,000 FEET WITH NO
SIGNIFICANT WEATHER AND/OR OBSTRUCTIONS TO VISIBILITY.

ARZ001-003-010-029-232100-
NORTHWEST ARKANSAS

CITY           SKY/WX    TMP DP  RH WIND       PRES   REMARKS
FAYETTEVILLE   CLOUDY    64  55  72 W14       29.82S
FORT SMITH     CLOUDY    76  53  44 NW12G22   29.78F
HARRISON       RAIN      65  53  65 W9        29.79S
BENTONVILLE    CLOUDY    64  54  68 NW13G18   29.84S
ROGERS         CLOUDY    63  57  82 N3        29.83S
SILOAM SPGS    CLOUDY    61  54  77 N13       29.84S
HIGHFILL       CLOUDY    65  56  72 NW12      29.83F
SPRINGDALE     PTSUNNY   66  54  63 NW14G22   29.83F
$$

ARZ004-005-016-232100-
NORTH CENTRAL ARKANSAS

CITY           SKY/WX    TMP DP  RH WIND       PRES   REMARKS
BATESVILLE     MOSUNNY   75  55  50 NW8       29.73F
FLIPPIN        CLOUDY    72  54  53 W7        29.73F
MTN HOME       PTSUNNY   72  56  57 VRB5      29.74F
$$

ARZ040-041-232100-
WEST CENTRAL ARKANSAS

CITY           SKY/WX    TMP DP  RH WIND       PRES   REMARKS
MENA           PTSUNNY   75  55  50 NW9       29.81F
MOUNT IDA      MOSUNNY   76  51  41 N8        29.76F
$$

ARZ009-017-025-026-028-232100-
NORTHEAST ARKANSAS

CITY           SKY/WX    TMP DP  RH WIND       PRES   REMARKS
JONESBORO      LGT RAIN  69  59  70 NW13G28   29.73S
NEWPORT        PTSUNNY   73  63  70 NE12      29.73F
WALNUT RIDGE   CLOUDY    73  57  56 CALM      29.73F
BLYTHEVILLE    PTSUNNY   75  53  46 NW6       29.72F
NW BLYTHEVILLE PTSUNNY   77  52  41 W8        29.72F
$$

ARZ022-023-033-042-044-232100-
CENTRAL ARKANSAS

CITY           SKY/WX    TMP DP  RH WIND       PRES   REMARKS
LITTLE ROCK    PTSUNNY   75  57  53 W8G16     29.74F
CONWAY           N/A     79  57  47 W13G18    29.73F
SEARCY         CLOUDY    68  62  81 W5        29.76F
HOT SPRINGS    SUNNY     78  57  48 W9        29.76F
RUSSELLVILLE   MOSUNNY   75  55  49 W13       29.75F
CLINTON        FAIR      77  54  44 W9        29.73F
$$

ARZ036-232100-
EAST ARKANSAS

CITY           SKY/WX    TMP DP  RH WIND       PRES   REMARKS
WEST MEMPHIS   MOSUNNY   78  54  43 N9        29.71F
$$

ARZ050-053-066-070-073-232100-
SOUTHWEST ARKANSAS

CITY           SKY/WX    TMP DP  RH WIND       PRES   REMARKS
ARKADELPHIA      N/A     75  61  61 NW6       29.76F
CAMDEN         MOSUNNY   79  57  47 W6        29.76F
TEXARKANA      PTSUNNY   74  60  61 W6        29.79F
EL DORADO      CLOUDY    75  61  61 W8        29.78F
DE QUEEN       CLOUDY    76  59  55 NW8       29.76F
$$

ARZ056-057-069-232100-
SOUTHEAST ARKANSAS

CITY           SKY/WX    TMP DP  RH WIND       PRES   REMARKS
PINE BLUFF     PTSUNNY   75  60  59 NW3       29.75F
STUTTGART      CLOUDY    77  54  44 W8        29.75F
MONTICELLO     CLOUDY    77  60  55 VRB3      29.76F

$$





USA.gov is the U.S. government's official web portal to all federal, state and local government web resources and services.